Find OneWeb SL0096

NORAD ID: 45439 Int'l Des: 2020-020 Owner: ONEWEB Country: UK Constellation: oneweb operational
別名: ONEWEB-0096 spacetrack, celestrak
LEOCIRCULARPOLARONEWEB_TYPE

現在のビュー

3D地球を読み込み中...

About OneWeb SL0096

OneWeb SL0096 (NORAD 45439) is a oneweb constellation satellite launched Mar 21, 2020 by ONEWEB of UK. It operates in LEO, CIRCULAR, POLAR, ONEWEB_TYPE orbit with a mass of 148.00 kg.

次回通過

Passes for default location (London). Set your location on the main map for personalized predictions.

高度履歴

Loading altitude history...

軌道要素

1 45439U 20020R 26265.71685613 .00000516 00000-0 14211-2 0 9990
2 45439 87.8974 1.6809 0001759 104.6294 255.5029 13.11416702315443
Epoch: Sep 22, 2026 • Age: 11 hours

現在のステータス

高度 1224.0 km
遠地点 / 近地点 N/A
速度 7.25 km/s
衛星直下点 45.84°N, 64.65°W
打ち上げ日 Mar 21, 2020
運用期間 6.5 years
タイプ internet

技術仕様

分類 Payload
質量 148.00 kg
乾燥質量 140.00 kg
長さ 1.30 m
直径 1.00 m
スパン 5.00 m
形状 ? Trapezoid+2 pan
製造者 ONEWUS
バスタイプ ARROW
フェーズステータス In Orbit
所有者/国 ONEWEB/UK

Most Searched